Weather History for Oak Ridge, TN

Change the Weather History Date:

Tuesday, February 19, 2013

  Actual Average (KTYS) Record (KTYS)
Temperature  
Mean Temperature 45 °F 43 °F  
Max Temperature 53 °F 54 °F 78 °F (1939)
Min Temperature 36 °F 33 °F 3 °F (1958)
Degree Days  
Heating Degree Days 20 22  
Month to date heating degree days 452  
Since 1 July heating degree days 2714  
Cooling Degree Days 0 0  
Month to date cooling degree days 0  
Year to date cooling degree days 0  
Moisture  
Dew Point 29 °F    
Average Humidity 64    
Maximum Humidity 93    
Minimum Humidity 18    
Precipitation  
Precipitation 0.27 in 0.15 in 1.55 in (1924)
Month to date precipitation 2.89  
Year to date precipitation 7.21  
Snow  
Snow 0.00 in 0.00 in - ()
Month to date snowfall 1.2  
Since 1 July snowfall 4.7  
Snow Depth -    
Sea Level Pressure  
Sea Level Pressure 30.04 in    
Wind  
Wind Speed 8 mph (WSW)    
Max Wind Speed 18 mph    
Max Gust Speed 36 mph    
Visibility 9 miles    
Events Rain    
T = Trace of Precipitation, MM = Missing Value Source: NWS Daily Summary

Daily Weather History Graph

Daily Weather History Graph

Search for Another Location

Airport:

Trip Planner

Search our weather history database for the weather conditions in past years. The results will help you decide how hot, cold, wet, or windy it might be!

Date:

Astronomy

Feb. 19, 2013 Rise Set
Actual Time 7:19 AM EST 6:22 PM EST
Civil Twilight 6:53 AM EST 6:48 PM EST
Nautical Twilight 6:23 AM EST 7:18 PM EST
Astronomical Twilight 5:53 AM EST 7:48 PM EST
Moon 12:59 PM EST (2/19) 2:44 AM EST (2/19)
Length of Visible Light 11h 55m
Length of Day
11h 03m
Waxing Gibbous, 67% of the Moon is Illuminated
Feb 19
Waxing Gibbous
Feb 25
Full
Mar 4
Last Quarter
Mar 11
New
Mar 19
First Quarter

Hourly Weather History & Observations

Time (EST) Temp. Windchill Dew Point Humidity Pressure Visibility Wind Dir Wind Speed Gust Speed Precip Events Conditions
12:53 AM 51.1 °F - 23.0 °F 33% 29.98 in 10.0 mi SSW 18.4 mph 26.5 mph N/A   Overcast
1:53 AM 44.1 °F 41.5 °F 34.0 °F 68% 30.01 in 5.0 mi SW 4.6 mph 21.9 mph 0.05 in Rain Light Rain
2:53 AM 41.0 °F 37.1 °F 35.1 °F 79% 30.05 in 8.0 mi Variable 5.8 mph - 0.05 in Rain Light Rain
3:28 AM 39.2 °F 32.5 °F 35.6 °F 87% 30.04 in 5.0 mi SW 10.4 mph - 0.04 in Rain Rain
3:53 AM 39.0 °F 34.0 °F 35.1 °F 86% 30.04 in 6.0 mi Variable 6.9 mph - 0.07 in Rain Light Rain
4:53 AM 37.9 °F 35.5 °F 36.0 °F 93% 30.01 in 7.0 mi West 3.5 mph - 0.08 in Rain Light Rain
5:35 AM 39.2 °F 35.9 °F 35.6 °F 87% 29.97 in 10.0 mi WSW 4.6 mph - 0.01 in Rain Light Rain
5:53 AM 39.0 °F - 36.0 °F 89% 29.97 in 10.0 mi Calm Calm - 0.01 in   Overcast
6:11 AM 39.2 °F - 35.6 °F 87% 29.96 in 10.0 mi Calm Calm - N/A   Overcast
6:38 AM 39.2 °F 37.0 °F 35.6 °F 87% 29.96 in 9.0 mi WSW 3.5 mph - 0.00 in Rain Light Rain
6:53 AM 39.0 °F 36.8 °F 37.0 °F 93% 29.98 in 10.0 mi Variable 3.5 mph - 0.00 in Rain Light Rain
7:45 AM 39.2 °F 35.9 °F 37.4 °F 93% 29.96 in 9.0 mi Variable 4.6 mph - 0.00 in Rain Light Rain
7:53 AM 39.9 °F 35.8 °F 37.9 °F 93% 29.99 in 8.0 mi WSW 5.8 mph - 0.00 in Rain Light Rain
8:53 AM 41.0 °F 35.8 °F 37.9 °F 89% 30.01 in 10.0 mi WSW 8.1 mph - 0.00 in Rain Light Rain
9:23 AM 42.8 °F 38.0 °F 39.2 °F 87% 29.99 in 10.0 mi WSW 8.1 mph - 0.00 in Rain Light Rain
9:53 AM 42.1 °F 36.1 °F 39.0 °F 89% 30.03 in 10.0 mi WSW 10.4 mph 18.4 mph 0.01 in   Overcast
10:53 AM 45.0 °F 41.2 °F 41.0 °F 86% 30.03 in 10.0 mi WSW 6.9 mph - 0.00 in   Overcast
11:13 AM 46.4 °F 42.4 °F 41.0 °F 81% 30.01 in 10.0 mi WSW 8.1 mph - N/A   Mostly Cloudy
11:28 AM 46.4 °F 42.4 °F 37.4 °F 71% 30.01 in 10.0 mi SW 8.1 mph - N/A   Mostly Cloudy
11:53 AM 46.0 °F 43.1 °F 35.1 °F 66% 30.03 in 10.0 mi WSW 5.8 mph - N/A   Mostly Cloudy
12:53 PM 50.0 °F - 30.0 °F 46% 30.01 in 10.0 mi West 11.5 mph 19.6 mph N/A   Clear
1:53 PM 53.1 °F - 25.0 °F 34% 29.99 in 10.0 mi West 10.4 mph 21.9 mph N/A   Scattered Clouds
2:53 PM 53.1 °F - 18.0 °F 25% 30.00 in 10.0 mi West 9.2 mph 25.3 mph N/A   Clear
3:53 PM 51.1 °F - 8.1 °F 18% 30.03 in 10.0 mi West 12.7 mph 35.7 mph N/A   Clear
4:53 PM 50.0 °F - 10.9 °F 21% 30.06 in 10.0 mi West 11.5 mph 25.3 mph N/A   Clear
5:53 PM 48.0 °F - 12.0 °F 24% 30.09 in 10.0 mi West 9.2 mph 23.0 mph N/A   Clear
7:53 PM 43.0 °F 38.8 °F 15.1 °F 32% 30.15 in 10.0 mi West 6.9 mph - N/A   Clear
8:53 PM 41.0 °F 37.1 °F 14.0 °F 33% 30.16 in 10.0 mi WNW 5.8 mph - N/A   Clear
9:53 PM 39.9 °F 36.7 °F 15.1 °F 36% 30.19 in 10.0 mi Variable 4.6 mph - N/A   Clear
10:53 PM 37.9 °F 33.5 °F 12.9 °F 36% 30.20 in 10.0 mi West 5.8 mph - N/A   Clear
11:53 PM 36.0 °F 33.3 °F 14.0 °F 41% 30.24 in 10.0 mi West 3.5 mph - N/A   Clear